TimeIST,TemperatureF,Dew PointF,Humidity,Sea Level PressureIn,VisibilityMPH,Wind Direction,Wind SpeedMPH,Gust SpeedMPH,PrecipitationIn,Events,Conditions,WindDirDegrees,DateUTC
12:00 AM,57.2,50.0,77,29.83,6.2,SW,5.8,-,N/A,,Mostly Cloudy,220,2013-07-29 23:00:00
12:30 AM,57.2,51.8,82,29.83,6.2,SW,8.1,-,N/A,,Mostly Cloudy,230,2013-07-29 23:30:00
1:00 AM,57,51,73,29.84,19,SW,8.9,,,,Partly Cloudy,220,2013-07-30 00:00:00
1:00 AM,57.2,51.8,82,29.83,6.2,SW,8.1,-,N/A,,Mostly Cloudy,220,2013-07-30 00:00:00
1:30 AM,57.2,50.0,77,29.83,6.2,WSW,10.4,-,N/A,,Scattered Clouds,240,2013-07-30 00:30:00
2:00 AM,55.4,50.0,82,29.83,-9999.0,WSW,13.8,-,N/A,,Clear,240,2013-07-30 01:00:00
2:30 AM,55.4,50.0,82,29.83,-9999.0,SW,6.9,-,N/A,,Clear,220,2013-07-30 01:30:00
3:00 AM,55.4,50.0,82,29.83,-9999.0,SW,11.5,-,N/A,,Clear,230,2013-07-30 02:00:00
3:30 AM,53.6,50.0,88,29.83,-9999.0,SW,11.5,-,N/A,,Clear,230,2013-07-30 02:30:00
4:00 AM,53.6,50.0,88,29.83,-9999.0,SW,10.4,-,N/A,,Clear,230,2013-07-30 03:00:00
4:30 AM,53.6,50.0,88,29.83,-9999.0,SW,9.2,-,N/A,,Clear,230,2013-07-30 03:30:00
5:00 AM,53.6,50.0,88,29.83,-9999.0,SW,8.1,-,N/A,,Clear,230,2013-07-30 04:00:00
5:30 AM,53.6,50.0,88,29.83,-9999.0,SW,5.8,-,N/A,,Clear,220,2013-07-30 04:30:00
6:00 AM,51.8,50.0,94,29.80,-9999.0,SSW,8.1,-,N/A,,Clear,210,2013-07-30 05:00:00
6:30 AM,53.6,50.0,88,29.80,-9999.0,SW,6.9,-,N/A,,Clear,220,2013-07-30 05:30:00
7:00 AM,56,50,75,29.82,25,SW,8.9,,,,Scattered Clouds,230,2013-07-30 06:00:00
7:00 AM,55.4,50.0,82,29.80,-9999.0,SW,8.1,-,N/A,,Clear,230,2013-07-30 06:00:00
7:30 AM,57.2,50.0,77,29.80,6.2,WSW,10.4,-,N/A,,Mostly Cloudy,240,2013-07-30 06:30:00
8:00 AM,57.2,50.0,77,29.80,6.2,WSW,10.4,-,N/A,,Mostly Cloudy,240,2013-07-30 07:00:00
8:30 AM,57.2,51.8,82,29.80,6.2,WSW,9.2,-,N/A,,Mostly Cloudy,240,2013-07-30 07:30:00
9:00 AM,60.8,51.8,72,29.80,6.2,SW,10.4,-,N/A,,Scattered Clouds,230,2013-07-30 08:00:00
9:30 AM,62.6,51.8,68,29.80,6.2,SW,12.7,-,N/A,,Partly Cloudy,230,2013-07-30 08:30:00
10:00 AM,62.6,51.8,68,29.80,6.2,SW,10.4,-,N/A,,Scattered Clouds,230,2013-07-30 09:00:00
10:30 AM,64.4,51.8,64,29.80,6.2,SW,9.2,-,N/A,,Scattered Clouds,230,2013-07-30 09:30:00
11:00 AM,62.6,51.8,68,29.80,6.2,WSW,10.4,-,N/A,,Mostly Cloudy,250,2013-07-30 10:00:00
11:30 AM,66.2,51.8,60,29.80,6.2,WSW,11.5,-,N/A,,Mostly Cloudy,240,2013-07-30 10:30:00
12:00 PM,66.2,51.8,60,29.80,6.2,WSW,12.7,-,N/A,,Mostly Cloudy,240,2013-07-30 11:00:00
12:30 PM,66.2,50.0,56,29.80,6.2,WSW,11.5,-,N/A,,Mostly Cloudy,240,2013-07-30 11:30:00
1:00 PM,69,49,38,29.80,37,SW,13.4,,,,Mostly Cloudy,220,2013-07-30 12:00:00
1:00 PM,68.0,48.2,49,29.80,6.2,SW,13.8,-,N/A,,Mostly Cloudy,230,2013-07-30 12:00:00
1:30 PM,69.8,50.0,49,29.80,6.2,WSW,13.8,-,N/A,,Mostly Cloudy,240,2013-07-30 12:30:00
2:00 PM,66.2,50.0,56,29.77,6.2,WSW,12.7,-,N/A,,Mostly Cloudy,240,2013-07-30 13:00:00
2:30 PM,64.4,50.0,59,29.80,6.2,SW,17.3,-,N/A,Rain,Light Rain Showers,230,2013-07-30 13:30:00
3:00 PM,68.0,51.8,56,29.80,6.2,WSW,11.5,-,N/A,,Scattered Clouds,240,2013-07-30 14:00:00
3:30 PM,68.0,51.8,56,29.77,6.2,SW,16.1,-,N/A,,Scattered Clouds,230,2013-07-30 14:30:00
4:00 PM,66.2,53.6,64,29.80,6.2,WSW,17.3,-,N/A,,Scattered Clouds,240,2013-07-30 15:00:00
4:30 PM,66.2,55.4,68,29.80,6.2,WNW,13.8,-,N/A,,Scattered Clouds,290,2013-07-30 15:30:00
5:00 PM,69.8,55.4,60,29.77,6.2,West,13.8,-,N/A,,Scattered Clouds,270,2013-07-30 16:00:00
5:30 PM,68.0,53.6,60,29.77,6.2,West,16.1,-,N/A,,Scattered Clouds,280,2013-07-30 16:30:00
6:00 PM,68.0,51.8,56,29.80,6.2,West,21.9,-,N/A,,Scattered Clouds,280,2013-07-30 17:00:00
6:30 PM,66.2,51.8,60,29.80,6.2,West,20.7,-,N/A,,Scattered Clouds,280,2013-07-30 17:30:00
7:00 PM,64.4,51.8,64,29.80,6.2,West,16.1,-,N/A,,Scattered Clouds,280,2013-07-30 18:00:00
7:30 PM,64.4,50.0,59,29.83,6.2,West,16.1,-,N/A,,Scattered Clouds,260,2013-07-30 18:30:00
8:00 PM,62.6,50.0,63,29.83,6.2,West,15.0,-,N/A,,Mostly Cloudy,260,2013-07-30 19:00:00
8:30 PM,62.6,51.8,68,29.83,6.2,West,16.1,-,N/A,,Mostly Cloudy,260,2013-07-30 19:30:00
9:00 PM,60.8,51.8,72,29.83,6.2,West,11.5,-,N/A,,Mostly Cloudy,270,2013-07-30 20:00:00
9:30 PM,60.8,50.0,68,29.86,6.2,West,12.7,-,N/A,,Mostly Cloudy,270,2013-07-30 20:30:00
10:00 PM,60.8,50.0,68,29.86,6.2,West,16.1,-,N/A,,Mostly Cloudy,270,2013-07-30 21:00:00
10:30 PM,59.0,50.0,72,29.86,6.2,West,15.0,-,N/A,,Mostly Cloudy,260,2013-07-30 21:30:00
11:00 PM,59.0,50.0,72,29.86,6.2,West,15.0,-,N/A,,Mostly Cloudy,260,2013-07-30 22:00:00
11:30 PM,59.0,51.8,77,29.89,6.2,West,12.7,-,N/A,,Mostly Cloudy,260,2013-07-30 22:30:00